McConnell AFB, KS

7:44 PM CST on January 16, 2018 (GMT -0600)
McConnell Air Force Base

Weather History for KIAB - August, 2013

Change the Weather History Date:

Saturday, August 31, 2013

  Actual Average Record
Temperature  
Mean Temperature 87 °F -  
Max Temperature 101 °F 88 °F 108 °F (2011)
Min Temperature 73 °F 66 °F 58 °F (2017)
Cooling Degree Days 22    
Growing Degree Days 37 (Base 50)    
Moisture  
Dew Point 68 °F    
Average Humidity 61    
Maximum Humidity 88    
Minimum Humidity 26    
Precipitation  
Precipitation 0.00 in - - ()
Sea Level Pressure  
Sea Level Pressure 29.82 in    
Wind  
Wind Speed 6 mph (SE)    
Max Wind Speed 10 mph    
Max Gust Speed 22 mph    
Visibility 10 miles    
Events      
Averages and records for this station are not official NWS values.
T = Trace of Precipitation, MM = Missing Value Source: NWS Daily Summary

Daily Weather History Graph

Daily Weather History Graph

Search for Another Location

Airport or City:

Trip Planner

Search our weather history database for the weather conditions in past years. The results will help you decide how hot, cold, wet, or windy it might be!

Date:

Astronomy

Aug. 31, 2013 Rise Set
Actual Time 6:58 AM CDT 7:59 PM CDT
Civil Twilight 6:31 AM CDT 8:25 PM CDT
Nautical Twilight 5:59 AM CDT 8:57 PM CDT
Astronomical Twilight 5:26 AM CDT 9:30 PM CDT
Moon 2:31 AM CDT (8/31) 4:55 PM CDT (8/31)
Length of Visible Light 13h 54m
Length of Day
13h 00m
Waning Crescent, 21% of the Moon is Illuminated
Aug 31
Waning Crescent
Sep 5
New
Sep 12
First Quarter
Sep 19
Full
Sep 26
Last Quarter

Hourly Weather History & Observations

Time (CDT) Temp. Heat Index Dew Point Humidity Pressure Visibility Wind Dir Wind Speed Gust Speed Precip Events Conditions
12:58 AM 79.3 °F - 68.2 °F 69% 29.86 in 10.0 mi SSE 4.6 mph - N/A   Clear
1:58 AM 78.4 °F - 68.5 °F 72% 29.85 in 10.0 mi SSE 5.8 mph - N/A   Clear
2:58 AM 76.6 °F - 69.1 °F 77% 29.84 in 10.0 mi SSE 5.8 mph - N/A   Clear
3:58 AM 75.2 °F - 69.6 °F 83% 29.83 in 10.0 mi SSE 5.8 mph - N/A   Clear
4:58 AM 74.8 °F - 69.3 °F 83% 29.83 in 10.0 mi SSE 6.9 mph - N/A   Clear
5:33 AM 73.4 °F - 69.8 °F 88% 29.88 in 9.0 mi SSE 5.8 mph - N/A   Clear
5:43 AM 73.4 °F - 69.8 °F 88% 29.88 in 10.0 mi SSE 6.9 mph - N/A   Clear
5:58 AM 73.4 °F - 69.1 °F 86% 29.84 in 10.0 mi SSE 8.1 mph - N/A   Clear
6:58 AM 74.3 °F - 68.9 °F 83% 29.87 in 10.0 mi West 9.2 mph 21.9 mph N/A   Clear
7:58 AM 75.9 °F - 69.3 °F 80% 29.88 in 10.0 mi Calm Calm - N/A   Clear
8:34 AM 78.8 °F - 69.8 °F 74% 29.90 in 10.0 mi ESE 2.3 mph - N/A   Light Drizzle
8:44 AM 78.8 °F - 71.6 °F 78% 29.90 in 10.0 mi SE 2.3 mph - N/A   Clear
8:58 AM 79.5 °F - 70.5 °F 74% 29.86 in 10.0 mi SE 3.5 mph - 0.00 in   Clear
9:58 AM 85.6 °F 89.1 °F 68.2 °F 56% 29.85 in 10.0 mi Variable 3.5 mph - N/A   Clear
10:58 AM 87.8 °F 91.8 °F 68.9 °F 53% 29.84 in 10.0 mi SE 6.9 mph - N/A   Scattered Clouds
11:58 AM 91.9 °F 96.4 °F 68.4 °F 46% 29.83 in 10.0 mi SE 6.9 mph - N/A   Partly Cloudy
12:58 PM 94.5 °F 97.5 °F 65.8 °F 39% 29.82 in 10.0 mi ESE 10.4 mph - N/A   Scattered Clouds
1:58 PM 96.1 °F 101.0 °F 68.0 °F 40% 29.81 in 10.0 mi SSE 9.2 mph - N/A   Partly Cloudy
2:58 PM 98.8 °F 102.5 °F 66.2 °F 34% 29.80 in 10.0 mi SE 9.2 mph - N/A   Clear
3:58 PM 100.6 °F 103.9 °F 64.8 °F 31% 29.79 in 10.0 mi ESE 8.1 mph - N/A   Clear
4:58 PM 101.5 °F 102.4 °F 61.0 °F 26% 29.77 in 10.0 mi SE 5.8 mph - N/A   Clear
5:58 PM 100.6 °F 101.6 °F 60.4 °F 27% 29.76 in 10.0 mi SSE 6.9 mph - N/A   Clear
6:58 PM 97.9 °F 99.8 °F 63.0 °F 32% 29.75 in 10.0 mi SE 5.8 mph - N/A   Clear
7:58 PM 91.4 °F 98.4 °F 71.8 °F 52% 29.75 in 10.0 mi ESE 8.1 mph - N/A   Clear
8:58 PM 88.2 °F 94.1 °F 71.4 °F 57% 29.77 in 10.0 mi SE 8.1 mph - N/A   Clear
9:58 PM 84.6 °F 89.1 °F 70.2 °F 62% 29.78 in 10.0 mi SE 6.9 mph - N/A   Clear
10:58 PM 84.4 °F 87.9 °F 68.7 °F 59% 29.77 in 10.0 mi SSE 6.9 mph - N/A   Clear
11:58 PM 83.3 °F 86.6 °F 68.4 °F 61% 29.78 in 10.0 mi SSE 8.1 mph - N/A   Clear